Home > Weather > Salem > Past weeks

Flag for U.S.A. Weather for the Past 2 Weeks in Salem, Oregon, U.S.A.

Now
42 °F

Clear.


Feels Like: 42 °F
Forecast: 45 / 59 °F
Wind: No wind

Location: McNary Field

Current Time: Feb 9, 2016 at 11:24:37 PM

Latest Report: Feb 9, 2016 at 10:56 PM


Visibility: 10 mi

Pressure: 30.12 "Hg

Humidity: 85%

Dew point: 38 °F

Location of SalemLocation

Historic Weather in Salem — Graph

°F

Salem Temperature Yesterday

Maximum temperature yesterday: 64 °F (at 2:56 PM)
Minimum temperature yesterday: 37 °F (at 3:56 AM)
Average temperature yesterday: 49 °F

High & Low Weather Summary for the Past Weeks

 TemperatureHumidityPressure
High64 °F (Feb 8, 2:56 PM)97% (Jan 27, 7:56 AM)30.53 "Hg (Jan 27, 7:56 AM)
Low34 °F (Jan 31, 5:56 AM)42% (Feb 5, 2:56 PM)29.61 "Hg (Jan 29, 6:56 AM)
Average47 °F80%30.20 "Hg
* Reported Jan 25 9:56 PM — Feb 9 9:56 PM, Salem, Weather by CustomWeather, © 2016

Note: Actual official high and low records may vary slightly from our data, if they occured in-between our weather recording intervals... More about our weather records

Advertising

Salem Weather History for the Previous 24 Hours

 ConditionsComfort  
Time TempWeatherWind HumidityBarometerVisibility
9:56 PM
Tue, Feb 9
44 °FClear.No wind85%30.12 "Hg10 mi
8:56 PM44 °FClear.No wind85%30.13 "Hg10 mi
7:56 PM45 °FClear.No wind86%30.14 "Hg10 mi
6:56 PM48 °FClear.No wind77%30.15 "Hg10 mi
5:56 PM53 °FClear.3 mph69%30.16 "Hg10 mi
4:56 PM59 °FSunny.No wind58%30.16 "Hg10 mi
3:56 PM60 °FSunny.No wind47%30.17 "Hg10 mi
2:56 PM60 °FSunny.3 mph47%30.15 "Hg10 mi
1:56 PM61 °FSunny.No wind46%30.14 "Hg10 mi
12:56 PM58 °FSunny.No wind47%30.16 "Hg10 mi
11:56 AM57 °FSunny.5 mph49%30.19 "Hg10 mi
10:56 AM54 °FSunny.3 mph55%30.21 "Hg10 mi
9:56 AM51 °FSunny.No wind66%30.22 "Hg10 mi
8:56 AM43 °FSunny.No wind82%30.22 "Hg10 mi
7:56 AM35 °FSunny.3 mph92%30.21 "Hg10 mi
6:56 AM36 °FClear.No wind92%30.20 "Hg10 mi
5:56 AM36 °FClear.No wind92%30.20 "Hg10 mi
4:56 AM37 °FClear.No wind93%30.20 "Hg10 mi
3:56 AM38 °FClear.No wind90%30.19 "Hg10 mi
2:56 AM40 °FClear.No wind86%30.21 "Hg10 mi
1:56 AM40 °FClear.No wind89%30.21 "Hg10 mi
12:56 AM42 °FClear.No wind82%30.22 "Hg10 mi
11:56 PM
Mon, Feb 8
44 °FClear.No wind79%30.21 "Hg10 mi
Weather by CustomWeather, © 2016

See weather overviewHow to use our weather pages